Time,TemperatureF,DewpointF,PressureIn,WindDirection,WindDirectionDegrees,WindSpeedMPH,WindSpeedGustMPH,Humidity,HourlyPrecipIn,Conditions,Clouds,dailyrainin,SoftwareType,DateUTC
2013-03-09 00:00:00,67.3,66.4,30.03,South,176,8.6,13.8,97,0.00,CLR,,0.00,WeatherDisplay:10.37,2013-03-09 06:00:00,
2013-03-09 00:05:00,67.4,66.5,30.03,ESE,114,9.4,13.8,97,0.00,CLR,,0.00,WeatherDisplay:10.37,2013-03-09 06:05:00,
2013-03-09 00:10:00,67.4,66.5,30.03,SSE,154,8.7,13.8,97,0.00,CLR,,0.00,WeatherDisplay:10.37,2013-03-09 06:10:00,
2013-03-09 00:15:00,67.4,66.5,30.03,SSE,168,8.6,15.0,97,0.00,CLR,,0.00,WeatherDisplay:10.37,2013-03-09 06:15:00,
2013-03-09 00:20:00,67.4,66.5,30.03,SSE,167,9.1,12.7,97,0.00,CLR,,0.00,WeatherDisplay:10.37,2013-03-09 06:20:00,
2013-03-09 00:25:00,67.4,66.5,30.02,SE,133,8.8,14.7,97,0.00,CLR,,0.00,WeatherDisplay:10.37,2013-03-09 06:25:00,
2013-03-09 00:30:00,67.3,66.4,30.02,ESE,117,9.5,15.0,97,0.00,CLR,,0.00,WeatherDisplay:10.37,2013-03-09 06:30:00,
2013-03-09 00:35:00,67.3,66.4,30.02,SSE,151,8.5,16.1,97,0.00,CLR,,0.00,WeatherDisplay:10.37,2013-03-09 06:35:00,
2013-03-09 00:40:00,67.3,66.4,30.01,SE,134,8.0,13.8,97,0.00,CLR,,0.00,WeatherDisplay:10.37,2013-03-09 06:40:00,
2013-03-09 00:45:00,67.3,66.4,30.01,SE,140,8.1,13.8,97,0.00,CLR,,0.00,WeatherDisplay:10.37,2013-03-09 06:45:00,
2013-03-09 00:50:00,67.4,66.5,30.01,South,171,9.4,14.3,97,0.00,CLR,,0.00,WeatherDisplay:10.37,2013-03-09 06:50:00,
2013-03-09 00:55:00,67.3,66.4,30.01,SE,134,10.5,18.4,97,0.00,CLR,,0.00,WeatherDisplay:10.37,2013-03-09 06:55:00,
2013-03-09 01:00:00,67.3,66.4,30.01,SSE,150,10.9,18.4,97,0.00,CLR,,0.00,WeatherDisplay:10.37,2013-03-09 07:00:00,
2013-03-09 01:05:00,67.2,66.3,30.01,ESE,109,9.1,15.0,97,0.00,CLR,,0.00,WeatherDisplay:10.37,2013-03-09 07:05:00,
2013-03-09 01:10:00,67.3,66.4,30.00,SE,145,9.2,13.8,97,0.00,CLR,,0.00,WeatherDisplay:10.37,2013-03-09 07:10:00,
2013-03-09 01:15:00,67.3,66.4,30.00,SE,145,11.6,17.3,97,0.00,CLR,,0.00,WeatherDisplay:10.37,2013-03-09 07:15:00,
2013-03-09 01:20:00,67.3,66.4,30.00,SSE,167,10.5,16.1,97,0.00,CLR,,0.00,WeatherDisplay:10.37,2013-03-09 07:20:00,
2013-03-09 01:25:00,67.3,66.4,30.00,SSE,151,11.1,17.5,97,0.00,CLR,,0.00,WeatherDisplay:10.37,2013-03-09 07:25:00,
2013-03-09 01:30:00,67.3,66.4,30.00,SSE,151,12.0,16.5,97,0.00,CLR,,0.00,WeatherDisplay:10.37,2013-03-09 07:30:00,
2013-03-09 01:35:00,67.2,66.3,29.99,SSE,155,11.8,17.3,97,0.00,CLR,,0.00,WeatherDisplay:10.37,2013-03-09 07:35:00,
2013-03-09 01:40:00,67.3,66.4,29.99,SSE,160,13.0,17.3,97,0.00,CLR,,0.00,WeatherDisplay:10.37,2013-03-09 07:40:00,
2013-03-09 01:45:00,67.3,66.4,29.99,SSE,162,14.1,21.9,97,0.00,CLR,,0.00,WeatherDisplay:10.37,2013-03-09 07:45:00,
2013-03-09 01:50:00,67.2,66.3,29.99,SSE,148,12.9,19.9,97,0.00,CLR,,0.00,WeatherDisplay:10.37,2013-03-09 07:50:00,
2013-03-09 01:55:00,67.2,66.3,29.99,SSE,148,11.6,17.2,97,0.00,CLR,,0.00,WeatherDisplay:10.37,2013-03-09 07:55:00,
2013-03-09 02:00:00,67.2,66.3,29.98,South,169,10.9,20.7,97,0.00,CLR,,0.00,WeatherDisplay:10.37,2013-03-09 08:00:00,
2013-03-09 02:05:00,67.3,66.4,29.98,SE,141,14.7,20.7,97,0.00,CLR,,0.00,WeatherDisplay:10.37,2013-03-09 08:05:00,
2013-03-09 02:10:00,67.3,66.4,29.97,SSE,151,16.6,24.2,97,0.00,CLR,,0.00,WeatherDisplay:10.37,2013-03-09 08:10:00,
2013-03-09 02:15:00,67.3,66.4,29.96,SE,130,14.8,23.4,97,0.00,CLR,,0.00,WeatherDisplay:10.37,2013-03-09 08:15:00,
2013-03-09 02:20:00,67.3,66.4,29.96,SE,131,16.1,24.1,97,0.00,,,0.00,WeatherDisplay:10.37,2013-03-09 08:20:00,
2013-03-09 02:25:00,67.4,66.5,29.95,South,169,15.5,24.2,97,0.00,,,0.00,WeatherDisplay:10.37,2013-03-09 08:25:00,
2013-03-09 02:30:00,67.4,66.5,29.94,ESE,121,15.5,22.7,97,0.00,,,0.00,WeatherDisplay:10.37,2013-03-09 08:30:00,
2013-03-09 02:35:00,67.4,66.5,29.95,SE,134,16.8,27.4,97,0.00,,,0.00,WeatherDisplay:10.37,2013-03-09 08:35:00,
2013-03-09 02:40:00,67.4,66.5,29.94,SSE,152,16.3,25.5,97,0.00,,,0.00,WeatherDisplay:10.37,2013-03-09 08:40:00,
2013-03-09 02:45:00,67.4,66.5,29.94,South,171,14.7,25.5,97,0.00,,,0.00,WeatherDisplay:10.37,2013-03-09 08:45:00,
2013-03-09 02:50:00,67.4,66.5,29.94,SE,141,15.1,30.1,97,0.00,,,0.00,WeatherDisplay:10.37,2013-03-09 08:50:00,
2013-03-09 02:55:00,67.4,66.5,29.93,SSE,161,14.6,21.9,97,0.00,,,0.00,WeatherDisplay:10.37,2013-03-09 08:55:00,
2013-03-09 03:00:00,67.3,66.4,29.93,ESE,123,16.1,21.9,97,0.00,,,0.00,WeatherDisplay:10.37,2013-03-09 09:00:00,
2013-03-09 03:05:00,67.4,66.5,29.93,SSE,164,13.6,20.7,97,0.00,CLR,,0.00,WeatherDisplay:10.37,2013-03-09 09:05:00,
2013-03-09 03:10:00,67.2,66.3,29.92,ESE,123,13.1,20.4,97,0.00,CLR,,0.00,WeatherDisplay:10.37,2013-03-09 09:10:00,
2013-03-09 03:16:00,67.3,66.4,29.92,SE,138,13.3,19.6,97,0.00,CLR,,0.00,WeatherDisplay:10.37,2013-03-09 09:16:00,
2013-03-09 03:21:00,67.3,66.4,29.92,SSE,164,13.6,22.8,97,0.00,CLR,,0.00,WeatherDisplay:10.37,2013-03-09 09:21:00,
2013-03-09 03:26:00,67.2,66.3,29.92,SSE,157,14.3,19.7,97,0.00,CLR,,0.00,WeatherDisplay:10.37,2013-03-09 09:26:00,
2013-03-09 03:31:00,67.2,66.3,29.93,South,174,10.9,17.3,97,0.00,CLR,,0.00,WeatherDisplay:10.37,2013-03-09 09:31:00,
2013-03-09 03:36:00,67.3,66.4,29.93,SSE,150,13.5,20.7,97,0.00,CLR,,0.00,WeatherDisplay:10.37,2013-03-09 09:36:00,
2013-03-09 03:41:00,67.3,66.4,29.93,SSE,168,14.7,22.0,97,0.00,CLR,,0.00,WeatherDisplay:10.37,2013-03-09 09:41:00,
2013-03-09 03:46:00,67.4,66.5,29.93,SSE,152,13.2,21.9,97,0.00,CLR,,0.00,WeatherDisplay:10.37,2013-03-09 09:46:00,
2013-03-09 03:51:00,67.4,66.5,29.93,SE,138,10.9,18.4,97,0.00,CLR,,0.00,WeatherDisplay:10.37,2013-03-09 09:51:00,
2013-03-09 03:56:00,67.4,66.5,29.92,South,178,11.1,17.3,97,0.00,CLR,,0.00,WeatherDisplay:10.37,2013-03-09 09:56:00,
2013-03-09 04:01:00,67.4,66.5,29.93,South,171,11.5,17.3,97,0.00,CLR,,0.00,WeatherDisplay:10.37,2013-03-09 10:01:00,
2013-03-09 04:06:00,67.4,66.5,29.93,South,188,12.3,20.0,97,0.00,CLR,,0.00,WeatherDisplay:10.37,2013-03-09 10:06:00,
2013-03-09 04:11:00,67.3,66.4,29.93,South,179,11.5,17.7,97,0.00,CLR,,0.00,WeatherDisplay:10.37,2013-03-09 10:11:00,
2013-03-09 04:16:00,67.3,66.4,29.93,SSE,162,9.3,14.5,97,0.00,CLR,,0.00,WeatherDisplay:10.37,2013-03-09 10:16:00,
2013-03-09 04:21:00,67.3,66.4,29.92,SSE,147,11.7,19.0,97,0.00,CLR,,0.00,WeatherDisplay:10.37,2013-03-09 10:21:00,
2013-03-09 04:26:00,67.3,66.4,29.92,SSE,167,12.3,19.6,97,0.00,CLR,,0.00,WeatherDisplay:10.37,2013-03-09 10:26:00,
2013-03-09 04:31:00,67.3,66.4,29.91,SE,145,11.6,17.1,97,0.00,CLR,,0.00,WeatherDisplay:10.37,2013-03-09 10:31:00,
2013-03-09 04:36:00,67.3,66.4,29.92,South,176,10.5,18.4,97,0.00,CLR,,0.00,WeatherDisplay:10.37,2013-03-09 10:36:00,
2013-03-09 04:41:00,67.3,66.4,29.92,SSE,158,9.1,13.1,97,0.00,CLR,,0.00,WeatherDisplay:10.37,2013-03-09 10:41:00,
2013-03-09 04:46:00,67.2,66.3,29.91,SE,140,10.7,18.4,97,0.00,CLR,,0.00,WeatherDisplay:10.37,2013-03-09 10:46:00,
2013-03-09 04:51:00,67.2,66.3,29.91,SSE,161,10.6,17.3,97,0.00,CLR,,0.00,WeatherDisplay:10.37,2013-03-09 10:51:00,
2013-03-09 04:56:00,67.2,66.3,29.91,South,171,10.9,17.3,97,0.00,CLR,,0.00,WeatherDisplay:10.37,2013-03-09 10:56:00,
2013-03-09 05:01:00,67.3,66.4,29.92,SSE,167,12.0,19.1,97,0.00,CLR,,0.00,WeatherDisplay:10.37,2013-03-09 11:01:00,
2013-03-09 05:06:00,67.3,66.4,29.92,South,176,12.6,18.3,97,0.00,CLR,,0.00,WeatherDisplay:10.37,2013-03-09 11:06:00,
2013-03-09 05:11:00,67.4,66.5,29.92,SE,145,11.0,17.3,97,0.00,CLR,,0.00,WeatherDisplay:10.37,2013-03-09 11:11:00,
2013-03-09 05:16:00,67.3,66.7,29.91,SSE,158,11.0,17.3,98,0.00,CLR,,0.00,WeatherDisplay:10.37,2013-03-09 11:16:00,
2013-03-09 05:21:00,67.3,66.7,29.91,SSE,157,11.3,18.4,98,0.00,CLR,,0.00,WeatherDisplay:10.37,2013-03-09 11:21:00,
2013-03-09 05:26:00,67.3,66.7,29.92,South,179,10.0,15.0,98,0.00,CLR,,0.00,WeatherDisplay:10.37,2013-03-09 11:26:00,
2013-03-09 05:31:00,67.2,66.6,29.91,SSE,147,10.9,17.3,98,0.00,CLR,,0.00,WeatherDisplay:10.37,2013-03-09 11:31:00,
2013-03-09 05:36:00,67.2,66.6,29.91,South,189,10.3,17.4,98,0.00,CLR,,0.00,WeatherDisplay:10.37,2013-03-09 11:36:00,
2013-03-09 05:41:00,67.1,66.5,29.92,South,171,10.2,17.4,98,0.00,CLR,,0.00,WeatherDisplay:10.37,2013-03-09 11:41:00,
2013-03-09 05:46:00,67.2,66.6,29.92,SSE,152,8.9,13.8,98,0.00,CLR,,0.00,WeatherDisplay:10.37,2013-03-09 11:46:00,
2013-03-09 05:51:00,67.1,66.5,29.92,South,178,9.4,16.2,98,0.00,CLR,,0.00,WeatherDisplay:10.37,2013-03-09 11:51:00,
2013-03-09 05:56:00,67.1,66.5,29.92,SE,140,10.5,16.1,98,0.00,CLR,,0.00,WeatherDisplay:10.37,2013-03-09 11:56:00,
2013-03-09 06:01:00,67.2,66.6,29.92,South,172,11.3,16.4,98,0.00,CLR,,0.00,WeatherDisplay:10.37,2013-03-09 12:01:00,
2013-03-09 06:06:00,67.1,66.5,29.93,SSE,160,10.1,15.0,98,0.00,CLR,,0.00,WeatherDisplay:10.37,2013-03-09 12:06:00,
2013-03-09 06:11:00,67.1,66.5,29.92,SE,138,9.2,15.0,98,0.00,CLR,,0.00,WeatherDisplay:10.37,2013-03-09 12:11:00,
2013-03-09 06:16:00,67.1,66.5,29.93,SSE,155,9.4,15.0,98,0.00,CLR,,0.00,WeatherDisplay:10.37,2013-03-09 12:16:00,
2013-03-09 06:21:00,67.1,66.5,29.93,SE,145,7.8,11.5,98,0.00,CLR,,0.00,WeatherDisplay:10.37,2013-03-09 12:21:00,
2013-03-09 06:26:00,67.1,66.5,29.93,SE,133,9.0,15.0,98,0.00,CLR,,0.00,WeatherDisplay:10.37,2013-03-09 12:26:00,
2013-03-09 06:31:00,67.0,66.4,29.92,SE,145,8.1,12.7,98,0.00,CLR,,0.00,WeatherDisplay:10.37,2013-03-09 12:31:00,
2013-03-09 06:36:00,67.0,66.4,29.92,SSE,162,8.4,13.8,98,0.00,CLR,,0.00,WeatherDisplay:10.37,2013-03-09 12:36:00,
2013-03-09 06:41:00,67.1,66.5,29.93,SSE,154,8.3,12.7,98,0.00,CLR,,0.00,WeatherDisplay:10.37,2013-03-09 12:41:00,
2013-03-09 06:47:00,67.1,66.5,29.93,SE,145,10.0,15.0,98,0.00,CLR,,0.00,WeatherDisplay:10.37,2013-03-09 12:47:00,
2013-03-09 06:52:00,67.1,66.5,29.92,SE,140,10.0,16.1,98,0.00,CLR,,0.00,WeatherDisplay:10.37,2013-03-09 12:52:00,
2013-03-09 06:57:00,67.2,66.6,29.92,SSE,147,9.3,15.0,98,0.00,CLR,,0.00,WeatherDisplay:10.37,2013-03-09 12:57:00,
2013-03-09 07:02:00,67.1,66.5,29.92,SSE,162,10.2,17.3,98,0.00,CLR,,0.00,WeatherDisplay:10.37,2013-03-09 13:02:00,
2013-03-09 07:07:00,67.2,66.6,29.92,SSE,161,11.5,17.3,98,0.00,CLR,,0.00,WeatherDisplay:10.37,2013-03-09 13:07:00,
2013-03-09 07:12:00,67.2,66.6,29.93,SSE,161,10.5,19.6,98,0.00,CLR,,0.00,WeatherDisplay:10.37,2013-03-09 13:12:00,
2013-03-09 07:17:00,67.2,66.6,29.93,ESE,112,10.5,16.1,98,0.00,CLR,,0.00,WeatherDisplay:10.37,2013-03-09 13:17:00,
2013-03-09 07:22:00,67.2,66.6,29.93,SSE,150,10.3,15.3,98,0.00,CLR,,0.00,WeatherDisplay:10.37,2013-03-09 13:22:00,
2013-03-09 07:27:00,67.2,66.6,29.93,SSE,151,9.5,15.0,98,0.00,CLR,,0.00,WeatherDisplay:10.37,2013-03-09 13:27:00,
2013-03-09 07:32:00,67.2,66.6,29.93,South,175,9.0,13.8,98,0.00,CLR,,0.00,WeatherDisplay:10.37,2013-03-09 13:32:00,
2013-03-09 07:37:00,67.2,66.6,29.93,SE,140,8.7,16.1,98,0.00,CLR,,0.00,WeatherDisplay:10.37,2013-03-09 13:37:00,
2013-03-09 07:42:00,67.2,66.6,29.93,SE,126,8.8,12.7,98,0.00,CLR,,0.00,WeatherDisplay:10.37,2013-03-09 13:42:00,
2013-03-09 07:47:00,67.3,66.7,29.93,SSE,161,9.8,17.3,98,0.00,CLR,,0.00,WeatherDisplay:10.37,2013-03-09 13:47:00,
2013-03-09 07:52:00,67.3,66.7,29.94,SE,131,8.4,13.8,98,0.00,CLR,,0.00,WeatherDisplay:10.37,2013-03-09 13:52:00,
2013-03-09 07:57:00,67.4,66.8,29.94,SSE,164,8.2,14.2,98,0.00,CLR,,0.00,WeatherDisplay:10.37,2013-03-09 13:57:00,
2013-03-09 08:02:00,67.4,66.8,29.95,South,175,9.1,14.2,98,0.00,CLR,,0.00,WeatherDisplay:10.37,2013-03-09 14:02:00,
2013-03-09 08:07:00,67.3,66.7,29.94,South,171,9.3,12.7,98,0.00,CLR,,0.00,WeatherDisplay:10.37,2013-03-09 14:07:00,
2013-03-09 08:12:00,67.4,66.8,29.94,SSE,147,8.1,12.7,98,0.00,CLR,,0.00,WeatherDisplay:10.37,2013-03-09 14:12:00,
2013-03-09 08:17:00,67.4,66.8,29.94,SSE,161,8.9,14.0,98,0.00,CLR,,0.00,WeatherDisplay:10.37,2013-03-09 14:17:00,
2013-03-09 08:22:00,67.6,67.0,29.94,SSE,157,10.3,16.0,98,0.00,CLR,,0.00,WeatherDisplay:10.37,2013-03-09 14:22:00,
2013-03-09 08:27:00,67.5,66.9,29.94,SE,136,11.1,16.1,98,0.00,CLR,,0.00,WeatherDisplay:10.37,2013-03-09 14:27:00,
2013-03-09 08:32:00,67.7,67.1,29.94,SSE,162,9.7,17.3,98,0.00,CLR,,0.00,WeatherDisplay:10.37,2013-03-09 14:32:00,
2013-03-09 08:37:00,67.7,67.1,29.94,SSE,162,11.0,17.3,98,0.00,CLR,,0.00,WeatherDisplay:10.37,2013-03-09 14:37:00,
2013-03-09 08:42:00,67.7,67.1,29.95,SSE,155,13.1,18.4,98,0.00,CLR,,0.00,WeatherDisplay:10.37,2013-03-09 14:42:00,
2013-03-09 08:47:00,67.8,67.2,29.95,SE,134,11.3,18.4,98,0.00,CLR,,0.00,WeatherDisplay:10.37,2013-03-09 14:47:00,
2013-03-09 08:52:00,67.9,67.3,29.95,SSE,165,10.9,16.1,98,0.00,CLR,,0.00,WeatherDisplay:10.37,2013-03-09 14:52:00,
2013-03-09 08:57:00,67.9,67.0,29.95,SSE,162,11.0,17.3,97,0.00,CLR,,0.00,WeatherDisplay:10.37,2013-03-09 14:57:00,
2013-03-09 09:02:00,68.0,67.1,29.95,SSE,152,10.0,16.1,97,0.00,CLR,,0.00,WeatherDisplay:10.37,2013-03-09 15:02:00,
2013-03-09 09:07:00,68.1,67.2,29.95,SSE,162,11.9,20.7,97,0.00,CLR,,0.00,WeatherDisplay:10.37,2013-03-09 15:07:00,
2013-03-09 09:12:00,68.1,67.2,29.95,SSE,157,12.6,20.7,97,0.00,CLR,,0.00,WeatherDisplay:10.37,2013-03-09 15:12:00,
2013-03-09 09:17:00,68.1,67.2,29.95,South,181,12.7,22.2,97,0.00,CLR,,0.00,WeatherDisplay:10.37,2013-03-09 15:17:00,
2013-03-09 09:22:00,68.2,67.3,29.95,SSE,152,11.9,19.5,97,0.00,CLR,,0.00,WeatherDisplay:10.37,2013-03-09 15:22:00,
2013-03-09 09:27:00,68.2,67.3,29.94,SSE,168,11.6,20.7,97,0.00,CLR,,0.00,WeatherDisplay:10.37,2013-03-09 15:27:00,
2013-03-09 09:32:00,68.2,67.3,29.94,SE,144,11.9,20.7,97,0.00,CLR,,0.00,WeatherDisplay:10.37,2013-03-09 15:32:00,
2013-03-09 09:37:00,68.3,67.4,29.94,SSE,165,11.3,24.2,97,0.00,CLR,,0.00,WeatherDisplay:10.37,2013-03-09 15:37:00,
2013-03-09 09:42:00,68.4,67.5,29.94,SE,138,14.5,25.3,97,0.00,CLR,,0.00,WeatherDisplay:10.37,2013-03-09 15:42:00,
2013-03-09 09:47:00,68.5,67.3,29.94,SE,126,13.0,24.2,96,0.00,CLR,,0.00,WeatherDisplay:10.37,2013-03-09 15:47:00,
2013-03-09 09:52:00,68.5,67.3,29.94,SSW,208,12.8,19.6,96,0.00,CLR,,0.00,WeatherDisplay:10.37,2013-03-09 15:52:00,
2013-03-09 09:57:00,68.6,67.4,29.94,SSE,160,12.1,19.6,96,0.00,CLR,,0.00,WeatherDisplay:10.37,2013-03-09 15:57:00,
2013-03-09 10:02:00,68.7,67.5,29.94,SSE,148,13.6,20.8,96,0.00,CLR,,0.00,WeatherDisplay:10.37,2013-03-09 16:02:00,
2013-03-09 10:07:00,68.9,67.7,29.94,SE,145,12.6,19.6,96,0.00,CLR,,0.00,WeatherDisplay:10.37,2013-03-09 16:07:00,
2013-03-09 10:12:00,68.9,67.7,29.94,SSW,192,13.2,19.5,96,0.00,CLR,,0.00,WeatherDisplay:10.37,2013-03-09 16:12:00,
2013-03-09 10:17:00,69.1,67.9,29.94,South,186,12.3,19.6,96,0.00,CLR,,0.00,WeatherDisplay:10.37,2013-03-09 16:17:00,
2013-03-09 10:22:00,69.2,67.7,29.94,SE,130,11.4,21.9,95,0.00,CLR,,0.00,WeatherDisplay:10.37,2013-03-09 16:22:00,
2013-03-09 10:27:00,69.1,67.6,29.94,SSE,168,11.1,17.8,95,0.00,CLR,,0.00,WeatherDisplay:10.37,2013-03-09 16:27:00,
2013-03-09 10:32:00,69.2,67.7,29.94,South,184,11.1,18.4,95,0.00,CLR,,0.00,WeatherDisplay:10.37,2013-03-09 16:32:00,
2013-03-09 10:37:00,69.2,67.7,29.94,SSE,155,10.7,17.3,95,0.00,CLR,,0.00,WeatherDisplay:10.37,2013-03-09 16:37:00,
2013-03-09 10:42:00,69.3,67.8,29.94,SSE,157,10.6,18.4,95,0.00,CLR,,0.00,WeatherDisplay:10.37,2013-03-09 16:42:00,
2013-03-09 10:47:00,69.3,67.8,29.93,South,169,10.6,17.3,95,0.00,CLR,,0.00,WeatherDisplay:10.37,2013-03-09 16:47:00,
2013-03-09 10:52:00,69.3,67.8,29.93,East,85,12.0,16.6,95,0.00,CLR,,0.00,WeatherDisplay:10.37,2013-03-09 16:52:00,
2013-03-09 10:57:00,69.5,68.0,29.93,SE,143,12.6,21.3,95,0.00,CLR,,0.00,WeatherDisplay:10.37,2013-03-09 16:57:00,
2013-03-09 11:02:00,69.4,67.6,29.93,SSE,164,13.7,20.7,94,0.00,CLR,,0.00,WeatherDisplay:10.37,2013-03-09 17:02:00,
2013-03-09 11:07:00,69.6,67.8,29.93,SE,131,12.3,18.4,94,0.00,CLR,,0.00,WeatherDisplay:10.37,2013-03-09 17:07:00,
2013-03-09 11:12:00,69.8,68.0,29.92,SSE,165,14.0,22.4,94,0.00,CLR,,0.00,WeatherDisplay:10.37,2013-03-09 17:12:00,
2013-03-09 11:17:00,69.9,67.8,29.92,SSE,168,14.7,22.4,93,0.00,CLR,,0.00,WeatherDisplay:10.37,2013-03-09 17:17:00,
2013-03-09 11:22:00,70.1,68.0,29.92,SSE,167,14.6,23.0,93,0.00,CLR,,0.00,WeatherDisplay:10.37,2013-03-09 17:22:00,
2013-03-09 11:27:00,70.3,67.9,29.92,SE,138,13.8,24.3,92,0.00,CLR,,0.00,WeatherDisplay:10.37,2013-03-09 17:27:00,
2013-03-09 11:32:00,70.5,67.7,29.92,ESE,114,14.9,22.3,91,0.00,CLR,,0.00,WeatherDisplay:10.37,2013-03-09 17:32:00,
2013-03-09 11:41:00,70.6,67.5,29.92,SSE,161,13.8,25.9,90,0.00,CLR,,0.00,WeatherDisplay:10.37,2013-03-09 17:41:00,
2013-03-09 11:46:00,70.8,67.4,29.91,South,179,15.8,25.3,89,0.00,,,0.00,WeatherDisplay:10.37,2013-03-09 17:46:00,
2013-03-09 11:51:00,71.0,67.6,29.91,SE,137,14.2,23.0,89,0.00,,,0.00,WeatherDisplay:10.37,2013-03-09 17:51:00,
2013-03-09 11:56:00,71.3,67.6,29.91,SSE,157,12.4,24.1,88,0.00,,,0.00,WeatherDisplay:10.37,2013-03-09 17:56:00,
2013-03-09 12:01:00,71.2,67.5,29.91,SSE,168,13.5,24.2,88,0.00,,,0.00,WeatherDisplay:10.37,2013-03-09 18:01:00,
2013-03-09 12:06:00,71.3,67.6,29.90,SSE,152,17.8,27.6,88,0.00,,,0.00,WeatherDisplay:10.37,2013-03-09 18:06:00,
2013-03-09 12:11:00,71.4,67.3,29.89,SE,138,17.8,27.6,87,0.00,,,0.00,WeatherDisplay:10.37,2013-03-09 18:11:00,
2013-03-09 12:16:00,71.3,67.2,29.89,SSE,165,15.7,27.3,87,0.00,CLR,,0.00,WeatherDisplay:10.37,2013-03-09 18:16:00,
2013-03-09 12:21:00,71.0,67.3,29.88,SE,141,13.8,21.9,88,0.00,,,0.00,WeatherDisplay:10.37,2013-03-09 18:21:00,
2013-03-09 12:26:00,70.8,67.4,29.88,SSE,158,15.8,21.9,89,0.00,,,0.00,WeatherDisplay:10.37,2013-03-09 18:26:00,
2013-03-09 12:31:00,70.7,67.3,29.87,SSE,155,16.4,24.2,89,0.00,,,0.00,WeatherDisplay:10.37,2013-03-09 18:31:00,
2013-03-09 12:36:00,70.7,67.6,29.87,SE,127,14.5,27.6,90,0.00,,,0.00,WeatherDisplay:10.37,2013-03-09 18:36:00,
2013-03-09 12:41:00,70.7,67.3,29.86,SSE,162,17.5,27.0,89,0.00,,,0.00,WeatherDisplay:10.37,2013-03-09 18:41:00,
2013-03-09 12:47:00,71.0,67.6,29.85,SSE,152,17.4,29.9,89,0.00,,,0.00,WeatherDisplay:10.37,2013-03-09 18:47:00,
2013-03-09 12:52:00,71.4,67.3,29.85,SSE,157,17.3,31.1,87,0.00,,,0.00,WeatherDisplay:10.37,2013-03-09 18:52:00,
2013-03-09 12:57:00,71.5,67.4,29.85,South,169,18.5,28.8,87,0.00,,,0.00,WeatherDisplay:10.37,2013-03-09 18:57:00,
2013-03-09 13:02:00,71.5,67.1,29.85,SE,145,16.6,32.2,86,0.00,,,0.00,WeatherDisplay:10.37,2013-03-09 19:02:00,
2013-03-09 13:07:00,71.6,67.5,29.85,SE,131,14.6,26.5,87,0.00,,,0.00,WeatherDisplay:10.37,2013-03-09 19:07:00,
2013-03-09 13:12:00,71.8,67.4,29.84,SSE,162,18.1,30.0,86,0.00,,,0.00,WeatherDisplay:10.37,2013-03-09 19:12:00,
2013-03-09 13:17:00,71.9,67.5,29.84,South,169,16.6,27.6,86,0.00,,,0.00,WeatherDisplay:10.37,2013-03-09 19:17:00,
2013-03-09 13:22:00,71.9,67.5,29.84,ESE,106,15.9,28.8,86,0.00,,,0.00,WeatherDisplay:10.37,2013-03-09 19:22:00,
2013-03-09 13:27:00,72.0,67.6,29.83,SSE,155,18.3,30.4,86,0.00,,,0.00,WeatherDisplay:10.37,2013-03-09 19:27:00,
2013-03-09 13:32:00,72.1,67.7,29.83,ESE,119,17.7,33.1,86,0.00,,,0.00,WeatherDisplay:10.37,2013-03-09 19:32:00,
2013-03-09 13:37:00,72.3,67.5,29.83,SE,134,14.1,28.8,85,0.00,,,0.00,WeatherDisplay:10.37,2013-03-09 19:37:00,
2013-03-09 13:42:00,71.8,67.4,29.83,SSE,162,17.2,27.6,86,0.00,,,0.00,WeatherDisplay:10.37,2013-03-09 19:42:00,
2013-03-09 13:47:00,71.5,67.4,29.83,SSE,147,16.5,24.2,87,0.00,,,0.00,WeatherDisplay:10.37,2013-03-09 19:47:00,
2013-03-09 13:52:00,71.2,67.5,29.83,ESE,116,15.2,28.8,88,0.00,,,0.00,WeatherDisplay:10.37,2013-03-09 19:52:00,
2013-03-09 13:57:00,71.0,67.6,29.83,ESE,116,17.7,26.5,89,0.00,,,0.00,WeatherDisplay:10.37,2013-03-09 19:57:00,
2013-03-09 14:02:00,70.8,67.7,29.82,ESE,119,15.6,29.9,90,0.00,,,0.00,WeatherDisplay:10.37,2013-03-09 20:02:00,
2013-03-09 14:08:00,70.8,67.7,29.82,SE,144,17.1,23.0,90,0.00,,,0.00,WeatherDisplay:10.37,2013-03-09 20:08:00,
2013-03-09 14:13:00,70.7,67.6,29.82,SSE,161,15.9,26.5,90,0.00,,,0.00,WeatherDisplay:10.37,2013-03-09 20:13:00,
2013-03-09 14:18:00,70.5,67.7,29.82,SE,134,16.8,33.4,91,0.00,,,0.00,WeatherDisplay:10.37,2013-03-09 20:18:00,
2013-03-09 14:23:00,70.3,67.5,29.81,ESE,121,17.9,30.0,91,0.00,,,0.00,WeatherDisplay:10.37,2013-03-09 20:23:00,
2013-03-09 14:28:00,70.3,67.9,29.81,ESE,117,18.1,30.0,92,0.00,,,0.00,WeatherDisplay:10.37,2013-03-09 20:28:00,
2013-03-09 14:33:00,70.3,67.9,29.81,SE,126,16.2,26.1,92,0.00,,,0.00,WeatherDisplay:10.37,2013-03-09 20:33:00,
2013-03-09 14:38:00,70.5,68.1,29.80,ESE,107,15.8,25.3,92,0.00,,,0.00,WeatherDisplay:10.37,2013-03-09 20:38:00,
2013-03-09 14:43:00,70.5,68.1,29.80,SSE,148,16.5,31.0,92,0.00,,,0.00,WeatherDisplay:10.37,2013-03-09 20:43:00,
2013-03-09 14:48:00,70.6,67.8,29.79,SSE,147,16.9,32.2,91,0.00,,,0.00,WeatherDisplay:10.37,2013-03-09 20:48:00,
2013-03-09 14:53:00,70.5,67.7,29.79,SSE,148,17.0,26.5,91,0.00,,,0.00,WeatherDisplay:10.37,2013-03-09 20:53:00,
2013-03-09 14:58:00,70.8,67.7,29.79,SE,133,16.8,24.9,90,0.00,,,0.00,WeatherDisplay:10.37,2013-03-09 20:58:00,
2013-03-09 15:03:00,70.7,67.6,29.79,ESE,117,17.4,27.6,90,0.00,CLR,,0.00,WeatherDisplay:10.37,2013-03-09 21:03:00,
2013-03-09 15:08:00,70.6,67.5,29.79,SSE,167,18.3,27.6,90,0.00,,,0.00,WeatherDisplay:10.37,2013-03-09 21:08:00,
2013-03-09 15:13:00,70.5,67.4,29.78,SSE,158,17.6,30.3,90,0.00,,,0.00,WeatherDisplay:10.37,2013-03-09 21:13:00,
2013-03-09 15:18:00,70.5,67.7,29.78,SE,138,17.7,31.1,91,0.00,,,0.00,WeatherDisplay:10.37,2013-03-09 21:18:00,
2013-03-09 15:23:00,70.4,67.6,29.78,ESE,123,17.7,29.9,91,0.00,,,0.00,WeatherDisplay:10.37,2013-03-09 21:23:00,
2013-03-09 15:28:00,70.4,67.6,29.78,ESE,110,17.7,29.8,91,0.00,,,0.00,WeatherDisplay:10.37,2013-03-09 21:28:00,
2013-03-09 15:33:00,70.4,67.6,29.77,SSE,162,13.0,28.8,91,0.00,,,0.00,WeatherDisplay:10.37,2013-03-09 21:33:00,
2013-03-09 15:38:00,70.3,67.5,29.77,SE,124,14.5,28.8,91,0.00,CLR,,0.00,WeatherDisplay:10.37,2013-03-09 21:38:00,
2013-03-09 15:43:00,70.3,67.9,29.77,SSE,147,15.2,24.2,92,0.00,,,0.00,WeatherDisplay:10.37,2013-03-09 21:43:00,
2013-03-09 15:48:00,70.2,67.8,29.77,SSE,158,17.3,27.1,92,0.00,,,0.00,WeatherDisplay:10.37,2013-03-09 21:48:00,
2013-03-09 15:53:00,70.2,67.8,29.77,SE,138,16.8,25.3,92,0.00,,,0.00,WeatherDisplay:10.37,2013-03-09 21:53:00,
2013-03-09 15:58:00,70.2,67.8,29.77,SE,143,16.2,29.9,92,0.00,,,0.00,WeatherDisplay:10.37,2013-03-09 21:58:00,
2013-03-09 16:03:00,70.2,67.8,29.77,ESE,123,14.3,26.5,92,0.00,,,0.00,WeatherDisplay:10.37,2013-03-09 22:03:00,
2013-03-09 16:08:00,70.2,67.8,29.77,East,99,15.2,27.9,92,0.00,,,0.00,WeatherDisplay:10.37,2013-03-09 22:08:00,
2013-03-09 16:13:00,70.3,67.9,29.77,ESE,117,14.0,23.0,92,0.00,CLR,,0.00,WeatherDisplay:10.37,2013-03-09 22:13:00,
2013-03-09 16:18:00,70.2,67.8,29.77,ESE,117,15.5,28.8,92,0.00,,,0.00,WeatherDisplay:10.37,2013-03-09 22:18:00,
2013-03-09 16:23:00,70.3,67.9,29.77,ESE,107,13.4,29.9,92,0.00,,,0.00,WeatherDisplay:10.37,2013-03-09 22:23:00,
2013-03-09 16:28:00,70.3,67.9,29.77,SE,143,14.6,25.2,92,0.00,,,0.00,WeatherDisplay:10.37,2013-03-09 22:28:00,
2013-03-09 16:33:00,70.3,67.9,29.76,SE,144,14.2,26.5,92,0.00,,,0.00,WeatherDisplay:10.37,2013-03-09 22:33:00,
2013-03-09 16:38:00,70.1,67.7,29.77,SSE,154,15.5,26.5,92,0.00,,,0.00,WeatherDisplay:10.37,2013-03-09 22:38:00,
2013-03-09 16:43:00,70.0,67.9,29.77,SE,138,13.4,23.0,93,0.00,,,0.00,WeatherDisplay:10.37,2013-03-09 22:43:00,
2013-03-09 16:48:00,69.9,67.8,29.77,ESE,106,14.9,24.0,93,0.00,,,0.00,WeatherDisplay:10.37,2013-03-09 22:48:00,
2013-03-09 16:53:00,69.9,67.8,29.77,SSE,148,12.9,20.3,93,0.00,,,0.00,WeatherDisplay:10.37,2013-03-09 22:53:00,
2013-03-09 16:58:00,69.8,68.0,29.77,SE,140,13.4,19.6,94,0.00,,,0.00,WeatherDisplay:10.37,2013-03-09 22:58:00,
2013-03-09 17:03:00,69.7,67.9,29.77,ESE,121,12.3,24.2,94,0.00,CLR,,0.00,WeatherDisplay:10.37,2013-03-09 23:03:00,
2013-03-09 17:08:00,69.7,67.9,29.77,SE,133,14.8,23.8,94,0.00,CLR,,0.00,WeatherDisplay:10.37,2013-03-09 23:08:00,
2013-03-09 17:13:00,69.7,67.9,29.76,ESE,102,11.5,19.6,94,0.00,CLR,,0.00,WeatherDisplay:10.37,2013-03-09 23:13:00,
2013-03-09 17:18:00,69.7,67.9,29.76,SE,140,13.1,23.0,94,0.00,CLR,,0.00,WeatherDisplay:10.37,2013-03-09 23:18:00,
2013-03-09 17:23:00,69.7,67.9,29.76,SE,133,12.8,24.2,94,0.00,CLR,,0.00,WeatherDisplay:10.37,2013-03-09 23:23:00,
2013-03-09 17:28:00,69.7,67.9,29.75,ESE,120,12.2,21.9,94,0.00,CLR,,0.00,WeatherDisplay:10.37,2013-03-09 23:28:00,
2013-03-09 17:33:00,69.6,67.8,29.75,SE,127,11.2,21.9,94,0.00,CLR,,0.00,WeatherDisplay:10.37,2013-03-09 23:33:00,
2013-03-09 17:38:00,69.5,68.0,29.74,ESE,123,12.6,24.2,95,0.00,CLR,,0.00,WeatherDisplay:10.37,2013-03-09 23:38:00,
2013-03-09 17:43:00,69.4,67.9,29.74,SSE,147,11.9,22.2,95,0.00,CLR,,0.00,WeatherDisplay:10.37,2013-03-09 23:43:00,
2013-03-09 17:48:00,69.4,67.9,29.74,SE,131,13.6,22.4,95,0.00,CLR,,0.00,WeatherDisplay:10.37,2013-03-09 23:48:00,
2013-03-09 17:53:00,69.3,67.8,29.74,SE,140,12.6,22.6,95,0.00,CLR,,0.00,WeatherDisplay:10.37,2013-03-09 23:53:00,
2013-03-09 17:58:00,69.3,67.8,29.74,SE,145,10.1,17.3,95,0.00,CLR,,0.00,WeatherDisplay:10.37,2013-03-09 23:58:00,
2013-03-09 18:03:00,69.2,68.0,29.74,SE,134,10.5,22.6,96,0.00,CLR,,0.00,WeatherDisplay:10.37,2013-03-10 00:03:00,
2013-03-09 18:08:00,69.1,67.9,29.74,SSE,152,10.9,19.8,96,0.00,CLR,,0.00,WeatherDisplay:10.37,2013-03-10 00:08:00,
2013-03-09 18:13:00,69.0,67.8,29.74,SSE,152,13.7,21.1,96,0.00,CLR,,0.00,WeatherDisplay:10.37,2013-03-10 00:13:00,
2013-03-09 18:18:00,68.8,67.6,29.74,SE,144,12.9,21.9,96,0.00,CLR,,0.00,WeatherDisplay:10.37,2013-03-10 00:18:00,
2013-03-09 18:23:00,68.8,67.6,29.74,SSE,150,12.9,25.3,96,0.00,CLR,,0.00,WeatherDisplay:10.37,2013-03-10 00:23:00,
2013-03-09 18:28:00,68.7,67.5,29.75,SE,138,10.9,25.3,96,0.00,CLR,,0.00,WeatherDisplay:10.37,2013-03-10 00:28:00,
2013-03-09 18:33:00,68.6,67.4,29.75,South,175,8.4,17.3,96,0.00,CLR,,0.00,WeatherDisplay:10.37,2013-03-10 00:33:00,
2013-03-09 18:38:00,68.5,67.6,29.75,SE,141,10.8,17.9,97,0.00,CLR,,0.00,WeatherDisplay:10.37,2013-03-10 00:38:00,
2013-03-09 18:43:00,68.4,67.5,29.75,SSE,152,10.4,19.2,97,0.00,CLR,,0.00,WeatherDisplay:10.37,2013-03-10 00:43:00,
2013-03-09 18:48:00,68.4,67.5,29.75,SE,126,10.9,21.0,97,0.00,CLR,,0.00,WeatherDisplay:10.37,2013-03-10 00:48:00,
2013-03-09 18:53:00,68.3,67.4,29.75,SE,126,10.6,18.4,97,0.00,CLR,,0.00,WeatherDisplay:10.37,2013-03-10 00:53:00,
2013-03-09 18:58:00,68.3,67.4,29.75,SE,143,10.4,17.4,97,0.00,CLR,,0.00,WeatherDisplay:10.37,2013-03-10 00:58:00,
2013-03-09 19:03:00,68.3,67.4,29.75,SSE,152,11.2,16.2,97,0.00,CLR,,0.00,WeatherDisplay:10.37,2013-03-10 01:03:00,
2013-03-09 19:08:00,68.3,67.4,29.75,South,171,10.7,19.6,97,0.00,CLR,,0.00,WeatherDisplay:10.37,2013-03-10 01:08:00,
2013-03-09 19:13:00,68.3,67.4,29.75,ESE,104,11.1,21.9,97,0.00,CLR,,0.00,WeatherDisplay:10.37,2013-03-10 01:13:00,
2013-03-09 19:18:00,68.3,67.7,29.75,SE,127,13.0,20.7,98,0.00,CLR,,0.00,WeatherDisplay:10.37,2013-03-10 01:18:00,
2013-03-09 19:23:00,68.3,67.7,29.75,ESE,123,12.4,17.3,98,0.00,CLR,,0.00,WeatherDisplay:10.37,2013-03-10 01:23:00,
2013-03-09 19:28:00,68.2,67.6,29.74,SE,137,9.9,17.7,98,0.00,CLR,,0.00,WeatherDisplay:10.37,2013-03-10 01:28:00,
2013-03-09 19:33:00,68.1,67.5,29.74,ESE,121,10.3,18.4,98,0.00,CLR,,0.00,WeatherDisplay:10.37,2013-03-10 01:33:00,
2013-03-09 19:38:00,68.1,67.5,29.75,SSE,167,11.5,18.7,98,0.00,CLR,,0.00,WeatherDisplay:10.37,2013-03-10 01:38:00,
2013-03-09 19:43:00,68.1,67.5,29.75,ESE,116,10.5,19.8,98,0.00,CLR,,0.00,WeatherDisplay:10.37,2013-03-10 01:43:00,
2013-03-09 19:48:00,68.1,67.5,29.75,South,171,11.4,19.2,98,0.00,CLR,,0.00,WeatherDisplay:10.37,2013-03-10 01:48:00,
2013-03-09 19:53:00,68.1,67.5,29.75,SE,127,11.1,20.7,98,0.00,CLR,,0.00,WeatherDisplay:10.37,2013-03-10 01:53:00,
2013-03-09 19:58:00,68.2,67.6,29.75,SSE,162,11.8,22.8,98,0.00,CLR,,0.00,WeatherDisplay:10.37,2013-03-10 01:58:00,
2013-03-09 20:03:00,68.2,67.6,29.75,SSE,168,10.9,20.2,98,0.00,CLR,,0.00,WeatherDisplay:10.37,2013-03-10 02:03:00,
2013-03-09 20:08:00,68.2,67.6,29.75,SE,143,9.3,19.6,98,0.00,CLR,,0.00,WeatherDisplay:10.37,2013-03-10 02:08:00,
2013-03-09 20:13:00,68.2,67.6,29.75,SE,128,10.7,18.4,98,0.00,CLR,,0.00,WeatherDisplay:10.37,2013-03-10 02:13:00,
2013-03-09 20:18:00,68.3,67.7,29.75,SE,138,10.2,15.0,98,0.00,CLR,,0.00,WeatherDisplay:10.37,2013-03-10 02:18:00,
2013-03-09 20:23:00,68.3,67.7,29.75,SSE,161,12.8,18.2,98,0.00,CLR,,0.00,WeatherDisplay:10.37,2013-03-10 02:23:00,
2013-03-09 20:28:00,68.2,67.6,29.74,SE,144,10.1,17.3,98,0.00,CLR,,0.00,WeatherDisplay:10.37,2013-03-10 02:28:00,
2013-03-09 20:33:00,68.2,67.6,29.75,South,175,10.4,19.6,98,0.00,CLR,,0.00,WeatherDisplay:10.37,2013-03-10 02:33:00,
2013-03-09 20:38:00,68.2,67.6,29.75,SSE,164,11.2,16.2,98,0.00,CLR,,0.00,WeatherDisplay:10.37,2013-03-10 02:38:00,
2013-03-09 20:43:00,68.2,67.6,29.75,SE,143,10.0,18.4,98,0.00,CLR,,0.00,WeatherDisplay:10.37,2013-03-10 02:43:00,
2013-03-09 20:48:00,68.2,67.6,29.76,SE,143,8.8,18.4,98,0.00,CLR,,0.00,WeatherDisplay:10.37,2013-03-10 02:48:00,
2013-03-09 20:53:00,68.3,67.7,29.76,SE,141,9.1,13.8,98,0.00,CLR,,0.00,WeatherDisplay:10.37,2013-03-10 02:53:00,
2013-03-09 20:59:00,68.3,67.7,29.76,SSE,154,10.8,16.1,98,0.00,CLR,,0.00,WeatherDisplay:10.37,2013-03-10 02:59:00,
2013-03-09 21:04:00,68.4,67.8,29.76,ESE,104,10.3,15.4,98,0.00,CLR,,0.00,WeatherDisplay:10.37,2013-03-10 03:04:00,
2013-03-09 21:09:00,68.4,67.8,29.76,SE,130,10.1,19.6,98,0.00,CLR,,0.00,WeatherDisplay:10.37,2013-03-10 03:09:00,
2013-03-09 21:14:00,68.4,67.8,29.76,SSE,150,11.9,19.6,98,0.00,CLR,,0.00,WeatherDisplay:10.37,2013-03-10 03:14:00,
2013-03-09 21:19:00,68.4,67.8,29.76,South,176,10.9,18.4,98,0.00,CLR,,0.00,WeatherDisplay:10.37,2013-03-10 03:19:00,
2013-03-09 21:24:00,68.4,67.8,29.77,SE,145,10.3,17.3,98,0.00,CLR,,0.00,WeatherDisplay:10.37,2013-03-10 03:24:00,
2013-03-09 21:29:00,68.4,67.8,29.77,SE,143,9.4,13.8,98,0.00,CLR,,0.00,WeatherDisplay:10.37,2013-03-10 03:29:00,
2013-03-09 21:34:00,68.4,67.8,29.76,SE,137,9.8,16.1,98,0.00,CLR,,0.00,WeatherDisplay:10.37,2013-03-10 03:34:00,
2013-03-09 21:39:00,68.3,67.7,29.76,SSE,155,10.5,15.0,98,0.00,CLR,,0.00,WeatherDisplay:10.37,2013-03-10 03:39:00,
2013-03-09 21:44:00,68.4,67.8,29.75,SE,124,11.6,18.2,98,0.00,CLR,,0.00,WeatherDisplay:10.37,2013-03-10 03:44:00,
2013-03-09 21:49:00,68.4,67.8,29.75,ESE,123,10.7,16.1,98,0.00,CLR,,0.00,WeatherDisplay:10.37,2013-03-10 03:49:00,
2013-03-09 21:54:00,68.3,67.7,29.75,SE,130,16.2,23.6,98,0.00,,,0.00,WeatherDisplay:10.37,2013-03-10 03:54:00,
2013-03-09 21:59:00,68.3,67.7,29.75,SE,140,14.5,21.8,98,0.00,,,0.00,WeatherDisplay:10.37,2013-03-10 03:59:00,
2013-03-09 22:04:00,68.4,68.1,29.74,ESE,114,15.7,28.3,99,0.00,,,0.00,WeatherDisplay:10.37,2013-03-10 04:04:00,
2013-03-09 22:09:00,68.4,68.1,29.74,SE,130,15.9,25.3,99,0.00,,,0.00,WeatherDisplay:10.37,2013-03-10 04:09:00,
2013-03-09 22:14:00,68.4,68.1,29.74,SE,143,14.2,28.8,99,0.00,,,0.00,WeatherDisplay:10.37,2013-03-10 04:14:00,
2013-03-09 22:19:00,68.5,68.2,29.74,SSE,164,14.4,24.2,99,0.00,,,0.00,WeatherDisplay:10.37,2013-03-10 04:19:00,
2013-03-09 22:24:00,68.5,68.2,29.74,SSE,150,15.1,22.4,99,0.00,CLR,,0.00,WeatherDisplay:10.37,2013-03-10 04:24:00,
2013-03-09 22:29:00,68.4,68.1,29.74,SE,136,13.9,25.9,99,0.00,CLR,,0.00,WeatherDisplay:10.37,2013-03-10 04:29:00,
2013-03-09 22:34:00,68.4,68.1,29.74,South,178,15.7,23.4,99,0.00,CLR,,0.00,WeatherDisplay:10.37,2013-03-10 04:34:00,
2013-03-09 22:39:00,68.4,68.1,29.74,SSE,152,16.6,23.0,99,0.00,,,0.00,WeatherDisplay:10.37,2013-03-10 04:39:00,
2013-03-09 22:44:00,68.5,68.2,29.73,SSE,148,16.9,25.3,99,0.00,,,0.00,WeatherDisplay:10.37,2013-03-10 04:44:00,
2013-03-09 22:49:00,68.5,68.2,29.73,SSE,168,16.0,26.7,99,0.00,,,0.00,WeatherDisplay:10.37,2013-03-10 04:49:00,
2013-03-09 22:54:00,68.4,68.1,29.73,SSE,161,14.6,26.5,99,0.00,,,0.00,WeatherDisplay:10.37,2013-03-10 04:54:00,
2013-03-09 22:59:00,68.4,68.1,29.72,SSE,160,16.7,30.5,99,0.00,,,0.00,WeatherDisplay:10.37,2013-03-10 04:59:00,
2013-03-09 23:00:00,68.3,68.0,29.72,South,169,16.5,30.5,99,0.00,,,0.00,WeatherDisplay:10.37,2013-03-10 05:00:00,
2013-03-09 23:01:00,68.3,68.0,29.72,SSE,155,15.6,29.9,99,0.00,,,0.00,WeatherDisplay:10.37,2013-03-10 05:01:00,
2013-03-09 23:06:00,68.4,68.1,29.71,South,178,19.8,32.2,99,0.00,,,0.00,WeatherDisplay:10.37,2013-03-10 05:06:00,
2013-03-09 23:11:00,68.5,68.2,29.71,SE,128,16.2,25.3,99,0.00,,,0.00,WeatherDisplay:10.37,2013-03-10 05:11:00,
2013-03-09 23:14:00,68.5,68.2,29.70,SSE,155,24.2,24.2,99,0.00,,,0.00,WeatherDisplay:10.37,2013-03-10 05:14:00,
2013-03-09 23:19:00,68.4,68.1,29.70,SE,141,17.0,29.3,99,0.00,,,0.00,WeatherDisplay:10.37,2013-03-10 05:19:00,
2013-03-09 23:24:00,68.4,68.1,29.69,SE,141,15.5,25.3,99,0.00,,,0.00,WeatherDisplay:10.37,2013-03-10 05:24:00,
2013-03-09 23:29:00,68.4,68.1,29.68,SSE,152,17.4,27.6,99,0.00,,,0.00,WeatherDisplay:10.37,2013-03-10 05:29:00,
2013-03-09 23:34:00,68.3,68.0,29.68,South,182,17.1,26.5,99,0.00,,,0.00,WeatherDisplay:10.37,2013-03-10 05:34:00,
2013-03-09 23:39:00,68.2,68.2,29.68,South,181,16.2,26.5,100,0.00,,,0.00,WeatherDisplay:10.37,2013-03-10 05:39:00,
2013-03-09 23:44:00,68.3,68.3,29.68,SE,128,19.4,26.5,100,0.00,,,0.00,WeatherDisplay:10.37,2013-03-10 05:44:00,
2013-03-09 23:49:00,68.3,68.3,29.68,SSE,160,18.4,28.8,100,0.00,,,0.00,WeatherDisplay:10.37,2013-03-10 05:49:00,
2013-03-09 23:54:00,68.4,68.4,29.69,SSE,150,19.1,31.6,100,0.00,,,0.00,WeatherDisplay:10.37,2013-03-10 05:54:00,
2013-03-09 23:59:00,68.4,68.4,29.69,SSE,167,15.0,21.9,100,0.00,,,0.00,WeatherDisplay:10.37,2013-03-10 05:59:00,